Project,Study,Ord_Occ,Event_Num,Date_Time_UTC,Date_Time_PST,Lat_Dec,Lon_Dec,Sta_ID,Line,Sta,Depth,Pressure,Temp0,Temp1,Salt0,CorrSalt0,Salt1,CorrSalt1,O2ml/L,AveCorrO2ml/L,StaCorrO2ml/L,FluorV,AveEstChl,StaEstChl,ISUSV,AveEstNO3,StaEstNO3,SigThetaTS0,SigThetaTS1,BAT,XMiss,SPAR,PAR,BTL_Depth,BTL_Temp,BTL_Salt,BTL_O2ml/L,BTL_Chl,BTL_Pha,BTL_NO3
CalCOFI,0701JD,022,200,18-Jan-2007 9:08:52 PM,18-Jan-2007 1:08:52 PM,33.25032,-118.24839,090.0 035.0,090.0,035.0,319.000,321.522,8.3736,8.3761,34.2540,34.2527,34.2513,34.2514,0.96768,1.15,1.16,0.0246,,,1.3671,29.64,31.571,26.6368,26.6343,0.4013,90.4548,5.1273e+00,9.9990e+03,320,8.37 ,34.251, 1.11,,,31.8
CalCOFI,0701JD,022,200,18-Jan-2007 9:08:56 PM,18-Jan-2007 1:08:56 PM,33.25032,-118.24834,090.0 035.0,090.0,035.0,318.000,320.513,8.3828,8.3846,34.2537,34.2524,34.2511,34.2512,0.97032,1.15,1.17,0.0246,,,1.3556,29.30,31.220,26.6351,26.6328,0.4003,90.4755,4.9685e+00,9.9990e+03,,,,,,,
CalCOFI,0701JD,022,200,18-Jan-2007 9:08:57 PM,18-Jan-2007 1:08:57 PM,33.25032,-118.24834,090.0 035.0,090.0,035.0,317.000,319.505,8.3852,8.3861,34.2537,34.2524,34.2509,34.2510,0.97215,1.15,1.17,0.0246,,,1.3565,29.33,31.248,26.6347,26.6324,0.4008,90.4652,5.2544e+00,9.9990e+03,,,,,,,
CalCOFI,0701JD,022,200,18-Jan-2007 9:08:58 PM,18-Jan-2007 1:08:58 PM,33.25032,-118.24834,090.0 035.0,090.0,035.0,316.000,318.496,8.3884,8.3891,34.2538,34.2525,34.2511,34.2512,0.97373,1.15,1.17,0.0241,,,1.3644,29.56,31.489,26.6343,26.6321,0.4006,90.4704,4.9851e+00,9.9990e+03,,,,,,,
CalCOFI,0701JD,022,200,18-Jan-2007 9:08:59 PM,18-Jan-2007 1:08:59 PM,33.25032,-118.24834,090.0 035.0,090.0,035.0,315.000,317.487,8.3944,8.3943,34.2541,34.2528,34.2512,34.2513,0.97560,1.16,1.17,0.0252,,,1.3580,29.37,31.293,26.6336,26.6313,0.4003,90.4764,5.6902e+00,9.9990e+03,,,,,,,
CalCOFI,0701JD,022,200,18-Jan-2007 9:09:00 PM,18-Jan-2007 1:09:00 PM,33.25032,-118.24834,090.0 035.0,090.0,035.0,314.000,316.479,8.3952,8.3941,34.2536,34.2523,34.2514,34.2515,0.97694,1.16,1.17,0.0249,,,1.3375,28.77,30.668,26.6331,26.6315,0.3989,90.5083,5.1777e+00,9.9990e+03,,,,,,,
CalCOFI,0701JD,022,200,18-Jan-2007 9:09:01 PM,18-Jan-2007 1:09:01 PM,33.25032,-118.24834,090.0 035.0,090.0,035.0,313.000,315.470,8.3932,8.3945,34.2539,34.2526,34.2512,34.2513,0.97801,1.16,1.18,0.0248,,,1.3314,28.59,30.482,26.6336,26.6313,0.3999,90.4861,5.3454e+00,9.9990e+03,,,,,,,
CalCOFI,0701JD,022,200,18-Jan-2007 9:09:03 PM,18-Jan-2007 1:09:03 PM,33.25032,-118.24834,090.0 035.0,090.0,035.0,312.000,314.461,8.3977,8.3979,34.2540,34.2527,34.2513,34.2514,0.98011,1.16,1.18,0.0241,,,1.3517,29.19,31.101,26.6329,26.6308,0.3990,90.5045,5.1344e+00,9.9990e+03,,,,,,,
CalCOFI,0701JD,022,200,18-Jan-2007 9:09:04 PM,18-Jan-2007 1:09:04 PM,33.25032,-118.24834,090.0 035.0,090.0,035.0,311.000,313.453,8.3984,8.3985,34.2539,34.2526,34.2514,34.2515,0.98176,1.16,1.18,0.0241,,,1.3698,29.72,31.653,26.6328,26.6308,0.3979,90.5304,5.1912e+00,9.9990e+03,,,,,,,
CalCOFI,0701JD,022,200,18-Jan-2007 9:09:05 PM,18-Jan-2007 1:09:05 PM,33.25032,-118.24834,090.0 035.0,090.0,035.0,310.000,312.444,8.3994,8.4004,34.2541,34.2528,34.2514,34.2515,0.98505,1.17,1.18,0.0237,,,1.3355,28.71,30.607,26.6327,26.6305,0.3968,90.5561,5.3235e+00,9.9990e+03,,,,,,,
CalCOFI,0701JD,022,200,18-Jan-2007 9:09:06 PM,18-Jan-2007 1:09:06 PM,33.25032,-118.24834,090.0 035.0,090.0,035.0,309.000,311.435,8.4024,8.4036,34.2541,34.2528,34.2513,34.2514,0.99035,1.17,1.19,0.0245,,,1.3328,28.63,30.525,26.6323,26.6299,0.3972,90.5469,5.1475e+00,9.9990e+03,,,,,,,
CalCOFI,0701JD,022,200,18-Jan-2007 9:09:07 PM,18-Jan-2007 1:09:07 PM,33.25032,-118.24834,090.0 035.0,090.0,035.0,308.000,310.427,8.4138,8.4178,34.2551,34.2538,34.2512,34.2513,0.99522,1.18,1.20,0.0248,,,1.3301,28.55,30.443,26.6313,26.6276,0.3972,90.5470,5.2368e+00,9.9990e+03,,,,,,,
CalCOFI,0701JD,022,200,18-Jan-2007 9:09:08 PM,18-Jan-2007 1:09:08 PM,33.25032,-118.24834,090.0 035.0,090.0,035.0,307.000,309.418,8.4406,8.4388,34.2541,34.2528,34.2512,34.2513,1.00200,1.19,1.20,0.0245,,,1.3253,28.41,30.296,26.6265,26.6244,0.3964,90.5659,5.2108e+00,9.9990e+03,,,,,,,
CalCOFI,0701JD,022,200,18-Jan-2007 9:09:09 PM,18-Jan-2007 1:09:09 PM,33.25032,-118.24834,090.0 035.0,090.0,035.0,306.000,308.409,8.4492,8.4491,34.2545,34.2532,34.2515,34.2516,1.00810,1.19,1.21,0.0250,,,1.3383,28.79,30.693,26.6254,26.6231,0.3950,90.5976,5.2802e+00,9.9990e+03,,,,,,,
CalCOFI,0701JD,022,200,18-Jan-2007 9:09:10 PM,18-Jan-2007 1:09:10 PM,33.25032,-118.24834,090.0 035.0,090.0,035.0,305.000,307.401,8.4776,8.4754,34.2540,34.2527,34.2508,34.2509,1.01206,1.20,1.22,0.0248,,,1.3380,28.78,30.684,26.6206,26.6185,0.3954,90.5887,5.3226e+00,9.9990e+03,,,,,,,
CalCOFI,0701JD,022,200,18-Jan-2007 9:09:10 PM,18-Jan-2007 1:09:10 PM,33.25032,-118.24834,090.0 035.0,090.0,035.0,304.000,306.392,8.4867,8.4858,34.2533,34.2520,34.2506,34.2507,1.01682,1.21,1.22,0.0242,,,1.3421,28.90,30.809,26.6187,26.6167,0.3948,90.6023,5.2256e+00,9.9990e+03,,,,,,,
CalCOFI,0701JD,022,200,18-Jan-2007 9:09:12 PM,18-Jan-2007 1:09:12 PM,33.25032,-118.24834,090.0 035.0,090.0,035.0,303.000,305.384,8.4906,8.4916,34.2531,34.2518,34.2505,34.2506,1.02185,1.21,1.23,0.0242,,,1.3488,29.10,31.013,26.6179,26.6157,0.3946,90.6055,5.2505e+00,9.9990e+03,,,,,,,
CalCOFI,0701JD,022,200,18-Jan-2007 9:09:13 PM,18-Jan-2007 1:09:13 PM,33.25032,-118.24834,090.0 035.0,090.0,035.0,302.000,304.375,8.5115,8.5069,34.2525,34.2512,34.2499,34.2500,1.02937,1.22,1.24,0.0239,,,1.3281,28.49,30.382,26.6142,26.6129,0.3950,90.5978,5.5613e+00,9.9990e+03,,,,,,,
CalCOFI,0701JD,022,200,18-Jan-2007 9:09:15 PM,18-Jan-2007 1:09:15 PM,33.25032,-118.24834,090.0 035.0,090.0,035.0,301.000,303.366,8.5325,8.5295,34.2520,34.2507,34.2487,34.2488,1.03474,1.23,1.24,0.0243,,,1.3178,28.19,30.068,26.6106,26.6084,0.3955,90.5855,5.4366e+00,9.9990e+03,,,,,,,
CalCOFI,0701JD,022,200,18-Jan-2007 9:09:16 PM,18-Jan-2007 1:09:16 PM,33.25032,-118.24834,090.0 035.0,090.0,035.0,300.000,302.358,8.5499,8.5495,34.2510,34.2497,34.2482,34.2483,1.03659,1.23,1.25,0.0243,,,1.3456,29.01,30.915,26.6071,26.6050,0.3961,90.5739,5.4981e+00,9.9990e+03,,,,,,,
CalCOFI,0701JD,022,200,18-Jan-2007 9:09:17 PM,18-Jan-2007 1:09:17 PM,33.25032,-118.24834,090.0 035.0,090.0,035.0,299.000,301.349,8.5533,8.5536,34.2502,34.2489,34.2479,34.2480,1.03903,1.23,1.25,0.0245,,,1.3595,29.42,31.339,26.6059,26.6041,0.3968,90.5578,5.4717e+00,9.9990e+03,,,,,,,
CalCOFI,0701JD,022,200,18-Jan-2007 9:09:17 PM,18-Jan-2007 1:09:17 PM,33.25032,-118.24834,090.0 035.0,090.0,035.0,298.000,300.341,8.5551,8.5565,34.2503,34.2490,34.2477,34.2478,1.03994,1.23,1.25,0.0242,,,1.3306,28.57,30.458,26.6057,26.6035,0.3971,90.5504,4.6525e+00,9.9990e+03,,,,,,,
CalCOFI,0701JD,022,200,18-Jan-2007 9:09:18 PM,18-Jan-2007 1:09:18 PM,33.25032,-118.24834,090.0 035.0,090.0,035.0,297.000,299.332,8.5568,8.5572,34.2499,34.2486,34.2477,34.2478,1.04111,1.24,1.25,0.0246,,,1.3315,28.59,30.485,26.6051,26.6033,0.3975,90.5415,4.9007e+00,9.9990e+03,,,,,,,
CalCOFI,0701JD,022,200,18-Jan-2007 9:09:19 PM,18-Jan-2007 1:09:19 PM,33.25032,-118.24834,090.0 035.0,090.0,035.0,296.000,298.323,8.5565,8.5575,34.2500,34.2487,34.2476,34.2477,1.04266,1.24,1.25,0.0249,,,1.3347,28.69,30.583,26.6053,26.6032,0.3973,90.5455,4.9926e+00,9.9990e+03,,,,,,,
CalCOFI,0701JD,022,200,18-Jan-2007 9:09:20 PM,18-Jan-2007 1:09:20 PM,33.25032,-118.24834,090.0 035.0,090.0,035.0,295.000,297.315,8.5566,8.5575,34.2498,34.2485,34.2477,34.2478,1.04429,1.24,1.26,0.0245,,,1.3278,28.48,30.373,26.6051,26.6033,0.3973,90.5463,4.8028e+00,9.9990e+03,,,,,,,
CalCOFI,0701JD,022,200,18-Jan-2007 9:09:21 PM,18-Jan-2007 1:09:21 PM,33.25032,-118.24834,090.0 035.0,090.0,035.0,294.000,296.306,8.5570,8.5577,34.2497,34.2484,34.2474,34.2475,1.04674,1.24,1.26,0.0244,,,1.3327,28.63,30.522,26.6049,26.6030,0.3972,90.5476,5.3281e+00,9.9990e+03,,,,,,,
CalCOFI,0701JD,022,200,18-Jan-2007 9:09:21 PM,18-Jan-2007 1:09:21 PM,33.25032,-118.24834,090.0 035.0,090.0,035.0,293.000,295.298,8.5580,8.5591,34.2496,34.2483,34.2473,34.2474,1.05077,1.25,1.26,0.0251,,,1.3358,28.72,30.617,26.6046,26.6027,0.3972,90.5470,5.2371e+00,9.9990e+03,,,,,,,
CalCOFI,0701JD,022,200,18-Jan-2007 9:09:23 PM,18-Jan-2007 1:09:23 PM,33.25032,-118.24834,090.0 035.0,090.0,035.0,292.000,294.289,8.5715,8.5715,34.2495,34.2482,34.2466,34.2467,1.05583,1.25,1.27,0.0245,,,1.3368,28.75,30.647,26.6025,26.6002,0.3970,90.5517,5.2509e+00,9.9990e+03,,,,,,,
CalCOFI,0701JD,022,200,18-Jan-2007 9:09:24 PM,18-Jan-2007 1:09:24 PM,33.25032,-118.24834,090.0 035.0,090.0,035.0,291.000,293.281,8.6004,8.6028,34.2478,34.2465,34.2456,34.2457,1.06271,1.26,1.28,0.0260,,,1.3252,28.41,30.293,26.5967,26.5946,0.3978,90.5347,5.3503e+00,9.9990e+03,,,,,,,
CalCOFI,0701JD,022,200,18-Jan-2007 9:09:26 PM,18-Jan-2007 1:09:26 PM,33.25032,-118.24834,090.0 035.0,090.0,035.0,290.000,292.272,8.6097,8.6185,34.2469,34.2456,34.2442,34.2443,1.06949,1.27,1.29,0.0244,,,1.3452,29.00,30.903,26.5945,26.5911,0.3964,90.5672,5.1981e+00,9.9990e+03,,,,,,,
CalCOFI,0701JD,022,200,18-Jan-2007 9:09:27 PM,18-Jan-2007 1:09:27 PM,33.25032,-118.24834,090.0 035.0,090.0,035.0,289.000,291.263,8.6254,8.6263,34.2463,34.2450,34.2441,34.2442,1.07337,1.27,1.29,0.0283,,,1.3487,29.10,31.010,26.5916,26.5897,0.3949,90.5991,5.4423e+00,9.9990e+03,,,,,,,
CalCOFI,0701JD,022,200,18-Jan-2007 9:09:28 PM,18-Jan-2007 1:09:28 PM,33.25032,-118.24834,090.0 035.0,090.0,035.0,288.000,290.255,8.6338,8.6359,34.2465,34.2452,34.2440,34.2441,1.07797,1.28,1.30,0.0256,,,1.3281,28.49,30.382,26.5905,26.5882,0.3949,90.5998,4.6459e+00,9.9990e+03,,,,,,,
CalCOFI,0701JD,022,200,18-Jan-2007 9:09:29 PM,18-Jan-2007 1:09:29 PM,33.25032,-118.24834,090.0 035.0,090.0,035.0,287.000,289.246,8.6453,8.6456,34.2463,34.2450,34.2437,34.2438,1.07992,1.28,1.30,0.0245,,,1.3292,28.53,30.415,26.5885,26.5864,0.3946,90.6057,5.5431e+00,9.9990e+03,,,,,,,
CalCOFI,0701JD,022,200,18-Jan-2007 9:09:29 PM,18-Jan-2007 1:09:29 PM,33.25032,-118.24834,090.0 035.0,090.0,035.0,286.000,288.238,8.6516,8.6516,34.2457,34.2444,34.2438,34.2439,1.08137,1.28,1.30,0.0243,,,1.3336,28.66,30.549,26.5871,26.5856,0.3961,90.5735,5.3314e+00,9.9990e+03,,,,,,,
CalCOFI,0701JD,022,200,18-Jan-2007 9:09:30 PM,18-Jan-2007 1:09:30 PM,33.25032,-118.24834,090.0 035.0,090.0,035.0,285.000,287.229,8.6504,8.6519,34.2461,34.2448,34.2439,34.2440,1.08317,1.29,1.30,0.0275,,,1.3510,29.17,31.080,26.5875,26.5856,0.3950,90.5980,5.5708e+00,9.9990e+03,,,,,,,
CalCOFI,0701JD,022,200,18-Jan-2007 9:09:31 PM,18-Jan-2007 1:09:31 PM,33.25032,-118.24834,090.0 035.0,090.0,035.0,284.000,286.221,8.6529,8.6544,34.2458,34.2445,34.2437,34.2438,1.08607,1.29,1.31,0.0241,,,1.3373,28.76,30.662,26.5869,26.5850,0.3944,90.6100,4.9584e+00,9.9990e+03,,,,,,,
CalCOFI,0701JD,022,200,18-Jan-2007 9:09:32 PM,18-Jan-2007 1:09:32 PM,33.25032,-118.24834,090.0 035.0,090.0,035.0,283.000,285.212,8.6556,8.6562,34.2460,34.2447,34.2438,34.2439,1.08951,1.29,1.31,0.0241,,,1.3377,28.78,30.675,26.5866,26.5848,0.3958,90.5801,5.1947e+00,9.9990e+03,,,,,,,
CalCOFI,0701JD,022,200,18-Jan-2007 9:09:33 PM,18-Jan-2007 1:09:33 PM,33.25032,-118.24834,090.0 035.0,090.0,035.0,282.000,284.204,8.6597,8.6605,34.2459,34.2446,34.2437,34.2438,1.09225,1.30,1.31,0.0245,,,1.3508,29.16,31.074,26.5859,26.5840,0.3946,90.6064,5.1998e+00,9.9990e+03,,,,,,,
CalCOFI,0701JD,022,200,18-Jan-2007 9:09:34 PM,18-Jan-2007 1:09:34 PM,33.25032,-118.24834,090.0 035.0,090.0,035.0,281.000,283.195,8.6747,8.6744,34.2456,34.2443,34.2432,34.2433,1.09419,1.30,1.32,0.0246,,,1.3520,29.20,31.111,26.5833,26.5814,0.3944,90.6111,5.0597e+00,9.9990e+03,,,,,,,
CalCOFI,0701JD,022,200,18-Jan-2007 9:09:35 PM,18-Jan-2007 1:09:35 PM,33.25032,-118.24834,090.0 035.0,090.0,035.0,280.000,282.187,8.6791,8.6794,34.2453,34.2440,34.2432,34.2433,1.09636,1.30,1.32,0.0242,,,1.3371,28.76,30.656,26.5823,26.5806,0.3946,90.6073,5.1743e+00,9.9990e+03,,,,,,,
CalCOFI,0701JD,022,200,18-Jan-2007 9:09:36 PM,18-Jan-2007 1:09:36 PM,33.25032,-118.24834,090.0 035.0,090.0,035.0,279.000,281.178,8.6813,8.6818,34.2453,34.2440,34.2431,34.2432,1.09801,1.30,1.32,0.0245,,,1.3093,27.94,29.809,26.5820,26.5802,0.3939,90.6222,5.1458e+00,9.9990e+03,,,,,,,
CalCOFI,0701JD,022,200,18-Jan-2007 9:09:37 PM,18-Jan-2007 1:09:37 PM,33.25032,-118.24834,090.0 035.0,090.0,035.0,278.000,280.170,8.6833,8.6840,34.2451,34.2438,34.2429,34.2430,1.10193,1.31,1.33,0.0250,,,1.3197,28.25,30.126,26.5815,26.5797,0.3940,90.6201,5.1425e+00,9.9990e+03,,,,,,,
CalCOFI,0701JD,022,200,18-Jan-2007 9:09:38 PM,18-Jan-2007 1:09:38 PM,33.25032,-118.24834,090.0 035.0,090.0,035.0,277.000,279.161,8.6872,8.6878,34.2448,34.2435,34.2428,34.2429,1.10654,1.31,1.33,0.0243,,,1.3541,29.26,31.175,26.5806,26.5790,0.3939,90.6227,5.1695e+00,9.9990e+03,,,,,,,
CalCOFI,0701JD,022,200,18-Jan-2007 9:09:39 PM,18-Jan-2007 1:09:39 PM,33.25032,-118.24834,090.0 035.0,090.0,035.0,276.000,278.153,8.7068,8.7076,34.2452,34.2439,34.2421,34.2422,1.11035,1.32,1.34,0.0242,,,1.3272,28.47,30.354,26.5779,26.5753,0.3942,90.6147,5.4298e+00,9.9990e+03,,,,,,,
CalCOFI,0701JD,022,200,18-Jan-2007 9:09:40 PM,18-Jan-2007 1:09:40 PM,33.25032,-118.24834,090.0 035.0,090.0,035.0,275.000,277.144,8.7239,8.7240,34.2435,34.2422,34.2416,34.2417,1.11450,1.32,1.34,0.0240,,,1.3263,28.44,30.327,26.5739,26.5724,0.3943,90.6127,5.0056e+00,9.9990e+03,,,,,,,
CalCOFI,0701JD,022,200,18-Jan-2007 9:09:41 PM,18-Jan-2007 1:09:41 PM,33.25032,-118.24834,090.0 035.0,090.0,035.0,274.000,276.136,8.7243,8.7247,34.2437,34.2424,34.2416,34.2417,1.11916,1.33,1.35,0.0240,,,1.3271,28.46,30.351,26.5740,26.5722,0.3942,90.6221,5.4681e+00,9.9990e+03,,,,,,,
CalCOFI,0701JD,022,200,18-Jan-2007 9:09:42 PM,18-Jan-2007 1:09:42 PM,33.25032,-118.24834,090.0 035.0,090.0,035.0,273.000,275.127,8.7283,8.7289,34.2439,34.2426,34.2415,34.2416,1.12765,1.34,1.36,0.0253,,,1.3076,27.89,29.757,26.5735,26.5715,-9.990e-29,90.6246,5.2757e+00,9.9990e+03,,,,,,,
CalCOFI,0701JD,022,200,18-Jan-2007 9:09:43 PM,18-Jan-2007 1:09:43 PM,33.25032,-118.24834,090.0 035.0,090.0,035.0,272.000,274.119,8.7604,8.7599,34.2436,34.2423,34.2404,34.2405,1.13318,1.35,1.36,0.0248,,,1.3155,28.12,29.998,26.5682,26.5658,-9.990e-29,90.6245,5.0565e+00,9.9990e+03,,,,,,,
CalCOFI,0701JD,022,200,18-Jan-2007 9:09:44 PM,18-Jan-2007 1:09:44 PM,33.25032,-118.24834,090.0 035.0,090.0,035.0,271.000,273.111,8.7875,8.7883,34.2419,34.2406,34.2394,34.2395,1.13864,1.35,1.37,0.0242,,,1.3302,28.56,30.446,26.5627,26.5605,-9.990e-29,90.6245,5.4266e+00,9.9990e+03,,,,,,,
CalCOFI,0701JD,022,200,18-Jan-2007 9:09:45 PM,18-Jan-2007 1:09:45 PM,33.25032,-118.24834,090.0 035.0,090.0,035.0,270.000,272.102,8.7996,8.8014,34.2415,34.2402,34.2393,34.2394,1.13871,1.35,1.37,0.0244,,,1.3183,28.21,30.083,26.5604,26.5584,0.3942,90.6170,5.4301e+00,9.9990e+03,,,,,,,
CalCOFI,0701JD,022,200,18-Jan-2007 9:09:48 PM,18-Jan-2007 1:09:48 PM,33.25032,-118.24834,090.0 035.0,090.0,035.0,269.000,271.094,8.7693,8.7648,34.2418,34.2405,34.2406,34.2407,1.14246,1.36,1.38,0.0242,,,1.3122,28.03,29.897,26.5654,26.5652,0.3943,90.6129,5.2209e+00,9.9990e+03,,,,,,,
CalCOFI,0701JD,022,200,18-Jan-2007 9:09:52 PM,18-Jan-2007 1:09:52 PM,33.25032,-118.24834,090.0 035.0,090.0,035.0,268.000,270.085,8.7947,8.7894,34.2410,34.2397,34.2388,34.2389,1.14536,1.36,1.38,0.0239,,,1.3260,28.43,30.318,26.5607,26.5599,0.3950,90.5973,5.3498e+00,9.9990e+03,268,8.82 ,34.238, 1.35,,,30.1
CalCOFI,0701JD,022,200,18-Jan-2007 9:10:42 PM,18-Jan-2007 1:10:42 PM,33.25021,-118.24822,090.0 035.0,090.0,035.0,267.000,269.077,8.8253,8.8251,34.2398,34.2385,34.2382,34.2383,1.16284,1.38,1.40,0.0243,,,1.3111,27.99,29.863,26.5550,26.5538,0.3942,90.6147,5.2918e+00,9.9990e+03,,,,,,,
CalCOFI,0701JD,022,200,18-Jan-2007 9:11:32 PM,18-Jan-2007 1:11:32 PM,33.24999,-118.24799,090.0 035.0,090.0,035.0,266.000,268.068,8.8260,8.8311,34.2402,34.2389,34.2381,34.2382,1.16722,1.39,1.41,0.0241,,,1.3077,27.89,29.760,26.5552,26.5528,0.3941,90.6181,5.4489e+00,9.9990e+03,,,,,,,
CalCOFI,0701JD,022,200,18-Jan-2007 9:11:31 PM,18-Jan-2007 1:11:31 PM,33.25000,-118.24800,090.0 035.0,090.0,035.0,265.000,267.060,8.8509,8.8518,34.2395,34.2382,34.2376,34.2377,1.18159,1.41,1.42,0.0244,,,1.3213,28.29,30.174,26.5508,26.5491,0.3943,90.6132,5.4989e+00,9.9990e+03,,,,,,,
CalCOFI,0701JD,022,200,18-Jan-2007 9:11:32 PM,18-Jan-2007 1:11:32 PM,33.25000,-118.24800,090.0 035.0,090.0,035.0,264.000,266.052,8.9009,8.8996,34.2404,34.2391,34.2370,34.2371,1.19005,1.42,1.43,0.0242,,,1.3315,28.59,30.485,26.5436,26.5411,0.3953,90.5899,5.1718e+00,9.9990e+03,,,,,,,
CalCOFI,0701JD,022,200,18-Jan-2007 9:11:33 PM,18-Jan-2007 1:11:33 PM,33.25000,-118.24800,090.0 035.0,090.0,035.0,263.000,265.043,8.9562,8.9605,34.2391,34.2378,34.2360,34.2361,1.20070,1.43,1.45,0.0245,,,1.3158,28.13,30.007,26.5338,26.5306,0.3954,90.5893,5.3907e+00,9.9990e+03,,,,,,,
CalCOFI,0701JD,022,200,18-Jan-2007 9:11:34 PM,18-Jan-2007 1:11:34 PM,33.25000,-118.24800,090.0 035.0,090.0,035.0,262.000,264.035,8.9939,8.9969,34.2365,34.2352,34.2346,34.2347,1.21289,1.44,1.46,0.0244,,,1.3173,28.18,30.052,26.5258,26.5238,0.3951,90.5945,5.4853e+00,9.9990e+03,,,,,,,
CalCOFI,0701JD,022,200,18-Jan-2007 9:11:35 PM,18-Jan-2007 1:11:35 PM,33.25000,-118.24800,090.0 035.0,090.0,035.0,261.000,263.026,9.0226,9.0202,34.2328,34.2315,34.2317,34.2318,1.22204,1.46,1.47,0.0243,,,1.3172,28.17,30.049,26.5183,26.5178,0.3953,90.5910,5.6905e+00,9.9990e+03,,,,,,,
CalCOFI,0701JD,022,200,18-Jan-2007 9:11:36 PM,18-Jan-2007 1:11:36 PM,33.25000,-118.24800,090.0 035.0,090.0,035.0,260.000,262.018,9.0361,9.0357,34.2317,34.2304,34.2304,34.2305,1.22944,1.46,1.48,0.0244,,,1.2705,26.80,28.625,26.5152,26.5143,0.3952,90.5933,4.8478e+00,9.9990e+03,,,,,,,
CalCOFI,0701JD,022,200,18-Jan-2007 9:11:37 PM,18-Jan-2007 1:11:37 PM,33.25000,-118.24800,090.0 035.0,090.0,035.0,259.000,261.009,9.0383,9.0386,34.2317,34.2304,34.2305,34.2306,1.23492,1.47,1.49,0.0238,,,1.2906,27.39,29.238,26.5149,26.5139,0.3953,90.5912,5.5568e+00,9.9990e+03,,,,,,,
CalCOFI,0701JD,022,200,18-Jan-2007 9:11:38 PM,18-Jan-2007 1:11:38 PM,33.25000,-118.24800,090.0 035.0,090.0,035.0,258.000,260.001,9.0404,9.0403,34.2314,34.2301,34.2305,34.2306,1.23824,1.48,1.49,0.0240,,,1.2932,27.47,29.318,26.5143,26.5136,0.3952,90.5923,6.0128e+00,9.9990e+03,,,,,,,
CalCOFI,0701JD,022,200,18-Jan-2007 9:11:39 PM,18-Jan-2007 1:11:39 PM,33.25000,-118.24800,090.0 035.0,090.0,035.0,257.000,258.993,9.0408,9.0409,34.2311,34.2298,34.2301,34.2302,1.24112,1.48,1.50,0.0240,,,1.3025,27.74,29.601,26.5140,26.5132,0.3952,90.5923,5.6016e+00,9.9990e+03,,,,,,,
CalCOFI,0701JD,022,200,18-Jan-2007 9:11:40 PM,18-Jan-2007 1:11:40 PM,33.25000,-118.24800,090.0 035.0,090.0,035.0,256.000,257.984,9.0424,9.0429,34.2306,34.2293,34.2295,34.2296,1.24416,1.48,1.50,0.0242,,,1.2807,27.10,28.936,26.5133,26.5124,0.3954,90.5888,5.6909e+00,9.9990e+03,,,,,,,
CalCOFI,0701JD,022,200,18-Jan-2007 9:11:42 PM,18-Jan-2007 1:11:42 PM,33.25000,-118.24800,090.0 035.0,090.0,035.0,255.000,256.976,9.0448,9.0453,34.2303,34.2290,34.2291,34.2292,1.24648,1.49,1.50,0.0240,,,1.3167,28.16,30.034,26.5126,26.5116,0.3951,90.5943,5.6977e+00,9.9990e+03,,,,,,,
CalCOFI,0701JD,022,200,18-Jan-2007 9:11:43 PM,18-Jan-2007 1:11:43 PM,33.25000,-118.24800,090.0 035.0,090.0,035.0,254.000,255.968,9.0501,9.0513,34.2301,34.2288,34.2288,34.2289,1.25015,1.49,1.51,0.0266,,,1.3239,28.37,30.254,26.5116,26.5104,0.3953,90.5903,5.6856e+00,9.9990e+03,,,,,,,
CalCOFI,0701JD,022,200,18-Jan-2007 9:11:44 PM,18-Jan-2007 1:11:44 PM,33.25000,-118.24800,090.0 035.0,090.0,035.0,253.000,254.959,9.0785,9.0796,34.2331,34.2318,34.2304,34.2305,1.25526,1.50,1.51,0.0234,,,1.2771,27.00,28.827,26.5095,26.5072,0.3956,90.5836,5.4204e+00,9.9990e+03,,,,,,,
CalCOFI,0701JD,022,200,18-Jan-2007 9:11:45 PM,18-Jan-2007 1:11:45 PM,33.25000,-118.24800,090.0 035.0,090.0,035.0,252.000,253.951,9.1370,9.1414,34.2372,34.2359,34.2348,34.2349,1.25957,1.50,1.52,0.0236,,,1.2571,26.41,28.217,26.5033,26.5007,0.3958,90.5800,4.7960e+00,9.9990e+03,,,,,,,
CalCOFI,0701JD,022,200,18-Jan-2007 9:11:45 PM,18-Jan-2007 1:11:45 PM,33.25000,-118.24800,090.0 035.0,090.0,035.0,251.000,252.942,9.1550,9.1548,34.2323,34.2310,34.2313,34.2314,1.26613,1.51,1.53,0.0240,,,1.2988,27.63,29.488,26.4966,26.4958,0.3959,90.5764,5.5664e+00,9.9990e+03,,,,,,,
CalCOFI,0701JD,022,200,18-Jan-2007 9:11:46 PM,18-Jan-2007 1:11:46 PM,33.25000,-118.24800,090.0 035.0,090.0,035.0,250.000,251.934,9.1795,9.1803,34.2345,34.2332,34.2326,34.2327,1.27088,1.52,1.53,0.0239,,,1.2908,27.40,29.244,26.4944,26.4927,0.3957,90.5812,5.9443e+00,9.9990e+03,,,,,,,
CalCOFI,0701JD,022,200,18-Jan-2007 9:11:47 PM,18-Jan-2007 1:11:47 PM,33.25000,-118.24800,090.0 035.0,090.0,035.0,249.000,250.926,9.1963,9.1975,34.2328,34.2315,34.2313,34.2314,1.27576,1.52,1.54,0.0241,,,1.2600,26.49,28.305,26.4903,26.4889,0.3954,90.5897,5.5862e+00,9.9990e+03,,,,,,,
CalCOFI,0701JD,022,200,18-Jan-2007 9:11:48 PM,18-Jan-2007 1:11:48 PM,33.25000,-118.24800,090.0 035.0,090.0,035.0,248.000,249.917,9.2074,9.2081,34.2324,34.2311,34.2313,34.2314,1.28054,1.53,1.54,0.0249,,,1.2724,26.86,28.683,26.4882,26.4873,0.3957,90.5817,5.5925e+00,9.9990e+03,,,,,,,
CalCOFI,0701JD,022,200,18-Jan-2007 9:11:49 PM,18-Jan-2007 1:11:49 PM,33.25000,-118.24800,090.0 035.0,090.0,035.0,247.000,248.909,9.2149,9.2153,34.2315,34.2302,34.2306,34.2307,1.28634,1.53,1.55,0.0243,,,1.2555,26.36,28.168,26.4863,26.4855,0.3966,90.5609,5.1603e+00,9.9990e+03,,,,,,,
CalCOFI,0701JD,022,200,18-Jan-2007 9:11:51 PM,18-Jan-2007 1:11:51 PM,33.25000,-118.24800,090.0 035.0,090.0,035.0,246.000,247.901,9.2198,9.2210,34.2301,34.2288,34.2291,34.2292,1.29237,1.54,1.56,0.0250,,,1.2559,26.37,28.180,26.4843,26.4834,0.3962,90.5703,5.6470e+00,9.9990e+03,,,,,,,
CalCOFI,0701JD,022,200,18-Jan-2007 9:11:52 PM,18-Jan-2007 1:11:52 PM,33.25000,-118.24800,090.0 035.0,090.0,035.0,245.000,246.892,9.2293,9.2303,34.2320,34.2307,34.2293,34.2294,1.29875,1.55,1.57,0.0282,,,1.2523,26.27,28.071,26.4843,26.4820,0.3952,90.5935,5.0988e+00,9.9990e+03,,,,,,,
CalCOFI,0701JD,022,200,18-Jan-2007 9:11:53 PM,18-Jan-2007 1:11:53 PM,33.25000,-118.24800,090.0 035.0,090.0,035.0,244.000,245.884,9.3165,9.3186,34.2419,34.2406,34.2370,34.2371,1.30576,1.56,1.58,0.0242,,,1.2550,26.35,28.153,26.4780,26.4738,0.3960,90.5747,5.7732e+00,9.9990e+03,,,,,,,
CalCOFI,0701JD,022,200,18-Jan-2007 9:11:54 PM,18-Jan-2007 1:11:54 PM,33.25000,-118.24800,090.0 035.0,090.0,035.0,243.000,244.876,9.3810,9.3819,34.2419,34.2406,34.2401,34.2402,1.31277,1.57,1.58,0.0240,,,1.2625,26.57,28.382,26.4675,26.4659,0.3944,90.6106,5.9721e+00,9.9990e+03,,,,,,,
CalCOFI,0701JD,022,200,18-Jan-2007 9:11:55 PM,18-Jan-2007 1:11:55 PM,33.25000,-118.24800,090.0 035.0,090.0,035.0,242.000,243.867,9.3868,9.3871,34.2391,34.2378,34.2386,34.2387,1.32447,1.58,1.60,0.0248,,,1.2813,27.12,28.955,26.4643,26.4638,0.3943,90.6140,5.3729e+00,9.9990e+03,,,,,,,
CalCOFI,0701JD,022,200,18-Jan-2007 9:11:56 PM,18-Jan-2007 1:11:56 PM,33.25000,-118.24800,090.0 035.0,090.0,035.0,241.000,242.859,9.3876,9.3881,34.2367,34.2354,34.2358,34.2359,1.34116,1.60,1.62,0.0258,,,1.2765,26.98,28.808,26.4623,26.4615,0.3938,90.6243,5.5339e+00,9.9990e+03,,,,,,,
CalCOFI,0701JD,022,200,18-Jan-2007 9:11:57 PM,18-Jan-2007 1:11:57 PM,33.25000,-118.24800,090.0 035.0,090.0,035.0,240.000,241.851,9.4052,9.4099,34.2327,34.2314,34.2295,34.2296,1.35576,1.62,1.64,0.0254,,,1.2680,26.73,28.549,26.4562,26.4530,0.3946,90.6054,5.4510e+00,9.9990e+03,,,,,,,
CalCOFI,0701JD,022,200,18-Jan-2007 9:11:58 PM,18-Jan-2007 1:11:58 PM,33.25000,-118.24800,090.0 035.0,090.0,035.0,239.000,240.843,9.4733,9.4758,34.2320,34.2307,34.2296,34.2297,1.36412,1.63,1.65,0.0240,,,1.2427,25.99,27.778,26.4446,26.4423,0.3939,90.6223,5.0246e+00,9.9990e+03,,,,,,,
CalCOFI,0701JD,022,200,18-Jan-2007 9:11:58 PM,18-Jan-2007 1:11:58 PM,33.25000,-118.24800,090.0 035.0,090.0,035.0,238.000,239.834,9.5410,9.5440,34.2382,34.2369,34.2358,34.2359,1.37177,1.64,1.66,0.0241,,,1.2107,25.05,26.802,26.4383,26.4360,0.3932,90.6376,5.4008e+00,9.9990e+03,,,,,,,
CalCOFI,0701JD,022,200,18-Jan-2007 9:11:59 PM,18-Jan-2007 1:11:59 PM,33.25000,-118.24800,090.0 035.0,090.0,035.0,237.000,238.826,9.5753,9.5767,34.2378,34.2365,34.2367,34.2368,1.38160,1.65,1.67,0.0248,,,1.2593,26.47,28.284,26.4323,26.4312,0.3928,90.6463,5.2663e+00,9.9990e+03,,,,,,,